Regional Weather Roundup
Issued by NWS

Home | Current Version | Previous Version | Text Only | Print | Product List | Glossary Off
Versions: 1 2 3 4 5 6 7 8 9 10 11 12 13 14 15 16 17 18 19 20 21 22 23 24 25 26 27 28 29 30 31 32 33 34 35 36 37 38 39 40 41 42 43 44 45 46 47 48 49 50

000
ASUS43 KIND 211309
RWRIN

WEATHER ROUNDUP FOR INDIANA
NATIONAL WEATHER SERVICE INDIANAPOLIS IN
900 AM EDT MON AUG 21 2017

NOTE: "FAIR" INDICATES FEW OR NO CLOUDS BELOW 12,000 FEET WITH NO
SIGNIFICANT WEATHER AND/OR OBSTRUCTIONS TO VISIBILITY.

* - STATION DOES NOT REPORT WEATHER SUCH AS PRECIPITATION OR FOG.

+ - STATION NOT QUALITY CONTROLLED BY THE NATIONAL WEATHER SERVICE.
    USE DATA WITH CAUTION...ESPECIALLY DEWPOINT AND RELATIVE
    HUMIDITY OBSERVATIONS.

INZ001>003-010>013-019-020-211400-
NORTHWEST INDIANA

CITY           SKY/WX    TMP DP  RH WIND       PRES   REMARKS
GARY /AIRPORT/ PTSUNNY   75  72  88 VRB5      30.07R
KNOX *+        MOSUNNY   72  68  88 S8        30.08S
LA PORTE +     MOSUNNY   72  68  88 S7        30.09S
MICHIGAN CITY+ MOSUNNY   73  68  83 S7        30.08R
MONTICELLO +   MOSUNNY   70  68  95 S6        30.10R
RENSSELAER +   CLOUDY    70  64  83 S5        30.09S
VALPARAISO     PTSUNNY   73  69  87 S7        30.09R

$$

LMZ046-743>745-211400-
SOUTHERN LAKE MICHIGAN

STATION/POSITION TIME  TEMP    WIND        PRES    WAVE
                       AIR SEA DIR/SP/G            HT
                 (UTC) (F)     (DEG/KT/KT) (MB)    (FT)
BURNS HARBOR     1240   74     180/  8/ 16 1018.6R
MICHIGAN CITY    1240   73     160/ 12/ 15   N/A
5NW MICH CITY    1300   73 74  210/  8/ 12   N/A     1

$$

INZ004-005-014>016-021>024-211400-
NORTH CENTRAL INDIANA

CITY           SKY/WX    TMP DP  RH WIND       PRES   REMARKS
ELKHART        SUNNY     75  68  78 SW8       30.09S
LOGANSPORT +   CLOUDY    70  68  94 S6        30.12R
PERU/GRISSOM   MOSUNNY   71  71 100 S7        30.10F
ROCHESTER +    MOSUNNY   75  68  78 S8        30.10F
SOUTH BEND     CLOUDY    75  70  84 S12       30.09S
WARSAW +       CLOUDY    73  70  88 CALM      30.09F

$$

INZ006>009-017-018-025>027-211400-
NORTHEAST INDIANA

CITY           SKY/WX    TMP DP  RH WIND       PRES   REMARKS
AUBURN +       MOSUNNY   73  68  83 CALM      30.11F
FORT WAYNE     CLOUDY    75  67  76 S8        30.12S
HUNTINGTON +   MOSUNNY   73  68  85 CALM      30.12F

$$

INZ028-029-035-036-043>045-051>053-211400-
WEST CENTRAL INDIANA

CITY           SKY/WX    TMP DP  RH WIND       PRES   REMARKS
GREENCASTLE +  CLOUDY    77  70  78 SW5       30.13S
LAFAYETTE      CLOUDY    72  70  93 CALM      30.10S
TERRE HAUTE    PTSUNNY   79  71  76 SW8       30.12S

$$

INZ030>032-037>040-046>048-054>057-064-065-211400-
CENTRAL INDIANA

CITY           SKY/WX    TMP DP  RH WIND       PRES   REMARKS
ANDERSON       SUNNY     75  70  83 MISG      30.14
CP ATTERBURY + SUNNY     72  68  88 CALM      30.15S
COLUMBUS       MOSUNNY   73  68  83 S6        30.14F
FRANKFORT +    MOSUNNY   78  73  83 SW5       30.13S
GREENWOOD *+   SUNNY     76  68  77 SW3       30.15R
INDIANAPOLIS   CLOUDY    76  69  79 S6        30.12S
-EAGLE CREEK   MOSUNNY   77  69  76 S6        30.12S
KOKOMO +       MOSUNNY   72  69  90 S7        30.13S
MARION +       MOSUNNY   72  70  94 S6        30.13S
MT COMFORT *+  SUNNY     72  70  94 S6        30.14F
SHELBYVILLE    SUNNY     76  68  76 S6        30.14S
ZIONSVILLE +   CLOUDY    74  71  88 SW5       30.13F

$$

INZ033-034-041-042-049-050-058-059-211400-
EAST CENTRAL INDIANA

CITY           SKY/WX    TMP DP  RH WIND       PRES   REMARKS
MUNCIE         SUNNY     78  69  73 VRB5      30.13S
RICHMOND +     MOSUNNY   72  70  94 SW5       30.17S

$$

INZ060-061-067>069-081>083-085>088-211400-
SOUTHWEST INDIANA

CITY           SKY/WX    TMP DP  RH WIND       PRES   REMARKS
EVANSVILLE     SUNNY     76  69  79 CALM      30.14F
HUNTINGBURG +  SUNNY     75  71  87 MISG      30.15F
WASHINGTON +   MOSUNNY   73  69  86 MISG      30.14S

$$

INZ062-063-066-070>080-084-089>092-211400-
SOUTH CENTRAL AND SOUTHEAST INDIANA

CITY           SKY/WX    TMP DP  RH WIND       PRES   REMARKS
BEDFORD +      CLOUDY    73  66  78 S6        30.14F
BLOOMINGTON    MOSUNNY   76  67  73 SW7       30.14S
MADISON *+     SUNNY     73  70  88 CALM      30.19R
NORTH VERNON + SUNNY     72  68  88 S5        30.17R
SEYMOUR +      MOSUNNY   73  70  88 SE3       30.14F

$$




USA.gov is the U.S. government's official web portal to all federal, state and local government web resources and services.